Location: Unspecified
(43.1763°N, 79.4719°W)
Time: 13:04:31
(UTC-05:00)

CZ-3 Stage 3 - Visible Passes

Search period start: 14 December 2018 00:00
Search period end: 24 December 2018 00:00
Orbit: 392 x 34800 km, 30.3° (Epoch: 13 December)

Date Brightness Start Highest point End Pass type
(mag) Time Alt. Az. Time Alt. Az. Time Alt. Az.
14 Dec 7.7 14:29:25 10° WSW 16:46:29 59° WSW 23:37:30 10° SW visible
15 Dec 7.8 10:46:56 10° SSW 16:31:56 71° SSE 20:09:23 10° SSE visible
16 Dec 10.7 18:47:50 10° WNW 20:12:35 17° WNW 22:39:13 10° WNW visible
17 Dec 7.8 14:19:05 10° WSW 16:35:09 59° WSW 23:26:36 10° SW visible
18 Dec 7.8 10:36:39 10° SSW 16:20:19 71° SSE 19:58:59 10° SSE visible
19 Dec 8.7 07:22:53 10° ESE 13:54:38 34° E 16:02:04 10° ESE visible
19 Dec 10.7 18:35:52 10° WNW 20:01:19 18° WNW 22:30:26 10° WNW visible
20 Dec 7.8 14:08:46 10° WSW 16:23:46 59° WSW 23:15:39 10° SW visible
21 Dec 7.9 10:26:24 10° SSW 16:08:42 70° SSE 19:48:36 10° SSE visible
22 Dec 8.8 07:11:10 10° ESE 13:44:06 34° E 15:51:16 10° ESE visible
22 Dec 10.6 18:24:01 10° WNW 19:50:01 18° WNW 22:21:19 10° WNW visible
23 Dec 7.9 13:58:28 10° WSW 16:12:21 60° WSW 23:04:40 10° SW visible
